Date String (YYYY-MM-DD hh:mm:ss) UTC,Instrument flags,absolute air pressure of the measurement (hPa),sample flow rate (lpm),inlet stack bypass flow (lpm),air temperature of the measurement (°C),ambient temperature measured by the external sensor (°C),aerosol sample conditioner tube jacket temperature (°C),OPC LED temperature (°C),internal box temperature (°C),relative humidity of the measurement (%),span deviation,mass concentration of particles derived from Lorenz-Mie calculation of OPC scattering (μg/m³),mass concentration of particles derived from Lorenz-Mie calculation of OPC scattering (μg/m³),mass concentration of particles derived from Lorenz-Mie calculation of OPC scattering (μg/m³)
DateTimeUTC,F1_M11,P_M11,Q1_M11,Q2_M11,T1_M11,T2_M11,T3_M11,T4_M11,T5_M11,U1_M11,ZSPAN_M11,X2_M11,X0_M11,X1_M11
2023-12-13 20:00:00,SystemResetWarning,0837.7,5.00,000.00,018.8,017.9,000.0,027.1,020.0,22.4,0001.3,0013.88,0017.86,0013.29
2023-12-13 20:01:00,SystemResetWarning,0837.7,5.00,000.00,018.8,017.9,000.0,027.1,020.0,22.4,0001.5,0013.93,0017.89,0013.32
2023-12-13 20:02:00,SystemResetWarning,0837.7,5.00,000.00,018.8,017.9,000.0,027.1,020.0,22.0,0001.4,0013.95,0017.94,0013.36
2023-12-13 20:03:00,SystemResetWarning,0837.7,5.00,000.00,018.8,017.9,000.0,027.1,020.0,21.7,0001.3,0014.03,0018.01,0013.44
2023-12-13 20:04:00,SystemResetWarning,0837.7,5.01,000.00,018.8,017.9,000.0,027.1,020.0,21.7,0001.3,0014.17,0018.19,0013.56
2023-12-13 20:05:00,SystemResetWarning,0837.7,5.00,000.00,018.8,017.9,000.0,027.1,020.0,21.8,0001.4,0014.32,0018.51,0013.70
2023-12-13 20:06:00,SystemResetWarning,0837.7,5.00,000.00,018.8,017.9,000.0,027.1,020.0,22.1,0001.2,0014.38,0018.49,0013.78
2023-12-13 20:07:00,SystemResetWarning,0837.7,5.00,000.00,018.8,017.8,000.0,027.1,020.0,22.2,0001.3,0014.45,0018.40,0013.84
2023-12-13 20:08:00,SystemResetWarning,0837.7,5.00,000.00,018.8,017.9,000.0,027.1,020.0,22.2,0001.3,0014.48,0017.86,0013.88
2023-12-13 20:09:00,SystemResetWarning,0837.7,5.00,000.00,018.7,017.9,000.0,027.1,020.0,22.2,0000.8,0014.49,0017.57,0013.90
2023-12-13 20:10:00,SystemResetWarning,0837.7,4.99,000.00,018.7,017.8,000.0,027.1,020.0,22.4,0000.6,0014.52,0017.59,0013.93
2023-12-13 20:11:00,SystemResetWarning,0837.7,5.00,000.00,018.7,017.8,000.0,027.1,020.0,22.4,0000.5,0014.52,0017.53,0013.95
2023-12-13 20:12:00,SystemResetWarning,0837.7,4.99,000.00,018.7,017.8,000.0,027.1,020.0,22.3,0000.4,0014.52,0017.85,0013.97
2023-12-13 20:13:00,SystemResetWarning,0837.7,5.00,000.00,018.8,017.8,000.0,027.1,020.0,22.4,0000.6,0014.54,0017.90,0013.98
2023-12-13 20:14:00,SystemResetWarning,0837.7,5.00,000.00,018.8,017.8,000.0,027.1,020.0,22.4,0000.8,0014.52,0017.90,0013.95
2023-12-13 20:15:00,SystemResetWarning,0837.7,5.01,000.00,018.7,017.8,000.0,027.1,020.0,22.4,0000.8,0014.46,0017.85,0013.91
2023-12-13 20:16:00,SystemResetWarning,0837.7,5.00,000.00,018.8,017.9,000.0,027.1,020.0,22.4,0001.0,0014.37,0017.58,0013.82
2023-12-13 20:17:00,SystemResetWarning,0837.6,5.00,000.00,018.8,017.8,000.0,027.1,020.0,22.5,0001.0,0014.33,0017.39,0013.78
2023-12-13 20:18:00,SystemResetWarning,0837.6,5.00,000.00,018.8,017.8,000.0,027.1,020.0,22.6,0001.0,0014.35,0017.65,0013.77
2023-12-13 20:19:00,SystemResetWarning,0837.6,5.00,000.00,018.8,017.8,000.0,027.1,020.0,22.7,0000.9,0014.34,0018.29,0013.78
2023-12-13 20:20:00,SystemResetWarning,0837.6,5.00,000.00,018.8,017.8,000.0,027.1,020.0,22.7,0001.0,0014.32,0018.33,0013.77
2023-12-13 20:21:00,SystemResetWarning,0837.6,5.00,000.00,018.8,017.8,000.0,027.1,020.0,22.6,0001.1,0014.34,0018.37,0013.77
2023-12-13 20:22:00,SystemResetWarning,0837.6,5.00,000.00,018.8,017.8,000.0,027.1,020.0,22.4,0001.3,0014.38,0018.40,0013.79
2023-12-13 20:23:00,SystemResetWarning,0837.6,5.01,000.00,018.8,017.8,000.0,027.1,020.0,22.2,0001.3,0014.41,0018.08,0013.83
2023-12-13 20:24:00,SystemResetWarning,0837.6,5.00,000.00,018.8,017.8,000.0,027.1,020.0,22.1,0001.3,0014.40,0017.82,0013.88
2023-12-13 20:25:00,SystemResetWarning,0837.6,5.00,000.00,018.8,017.8,000.0,027.1,020.0,22.0,0001.4,0014.49,0017.86,0013.96
2023-12-13 20:26:00,SystemResetWarning,0837.6,5.00,000.00,018.7,017.8,000.0,027.1,020.0,21.9,0001.6,0014.60,0018.03,0014.03
2023-12-13 20:27:00,SystemResetWarning,0837.6,5.00,000.00,018.7,017.8,000.0,027.1,020.0,21.7,0001.6,0014.70,0018.17,0014.10
2023-12-13 20:28:00,SystemResetWarning,0837.6,5.00,000.00,018.7,017.8,000.0,027.1,020.0,21.7,0001.8,0014.77,0018.24,0014.18
2023-12-13 20:29:00,SystemResetWarning,0837.6,5.00,000.00,018.7,017.8,000.0,027.1,020.0,21.7,0001.7,0014.82,0018.13,0014.26
2023-12-13 20:30:00,SystemResetWarning,0837.6,5.00,000.00,018.7,017.8,000.0,027.1,020.0,21.8,0001.7,0014.88,0017.59,0014.31
2023-12-13 20:31:00,SystemResetWarning,0837.6,4.99,000.00,018.8,017.8,000.0,027.1,020.0,22.0,0001.7,0014.96,0017.51,0014.40
2023-12-13 20:32:00,SystemResetWarning,0837.6,4.99,000.00,018.8,017.8,000.0,027.1,020.0,21.9,0001.6,0015.00,0017.52,0014.47
2023-12-13 20:33:00,SystemResetWarning,0837.6,5.01,000.00,018.7,017.9,000.0,027.1,020.0,21.8,0001.6,0015.04,0017.70,0014.52
2023-12-13 20:34:00,SystemResetWarning,0837.6,5.01,000.00,018.8,017.9,000.0,027.1,020.0,21.9,0001.9,0015.10,0018.12,0014.57
2023-12-13 20:35:00,SystemResetWarning,0837.6,5.00,000.00,018.7,017.9,000.0,027.1,020.0,22.0,0001.8,0015.16,0018.30,0014.58
2023-12-13 20:36:00,SystemResetWarning,0837.6,4.99,000.00,018.7,017.9,000.0,027.1,020.0,22.0,0001.6,0015.17,0018.29,0014.58
2023-12-13 20:37:00,SystemResetWarning,0837.6,5.00,000.00,018.8,017.8,000.0,027.1,020.0,22.1,0001.2,0015.14,0018.16,0014.57
2023-12-13 20:38:00,SystemResetWarning,0837.6,5.00,000.00,018.8,017.8,000.0,027.1,020.0,22.1,0001.2,0015.14,0018.23,0014.56
2023-12-13 20:39:00,SystemResetWarning,0837.6,5.01,000.00,018.8,017.8,000.0,027.1,020.0,22.0,0001.1,0015.12,0018.49,0014.54
2023-12-13 20:40:00,SystemResetWarning,0837.6,5.01,000.00,018.8,017.8,000.0,027.1,020.0,22.0,0001.1,0015.09,0018.62,0014.51
2023-12-13 20:41:00,SystemResetWarning,0837.6,5.01,000.00,018.8,017.8,000.0,027.1,020.0,22.1,0001.1,0015.06,0018.52,0014.51
2023-12-13 20:42:00,SystemResetWarning,0837.6,4.99,000.00,018.8,017.8,000.0,027.1,020.0,22.2,0001.0,0015.08,0018.56,0014.51
2023-12-13 20:43:00,SystemResetWarning,0837.7,4.99,000.00,018.8,017.8,000.0,027.1,020.0,22.4,0001.1,0015.11,0018.57,0014.53
2023-12-13 20:44:00,SystemResetWarning,0837.6,4.99,000.00,018.8,017.8,000.0,027.1,020.0,22.1,0001.0,0015.10,0018.47,0014.53
2023-12-13 20:45:00,SystemResetWarning,0837.6,5.00,000.00,018.8,017.9,000.0,027.1,020.0,21.9,0000.8,0015.10,0018.08,0014.53
2023-12-13 20:46:00,SystemResetWarning,0837.7,5.01,000.00,018.7,017.9,000.0,027.1,020.0,21.9,0000.7,0015.14,0018.13,0014.55
2023-12-13 20:47:00,SystemResetWarning,0837.6,5.00,000.00,018.7,017.8,000.0,027.1,020.0,22.0,0000.8,0015.14,0018.18,0014.56
2023-12-13 20:48:00,SystemResetWarning,0837.6,5.00,000.00,018.7,017.8,000.0,027.1,020.0,22.0,0000.9,0015.15,0018.24,0014.57
2023-12-13 20:49:00,SystemResetWarning,0837.6,5.00,000.00,018.7,017.8,000.0,027.1,020.0,22.0,0000.6,0015.18,0018.83,0014.60
2023-12-13 20:50:00,SystemResetWarning,0837.6,5.00,000.00,018.7,017.8,000.0,027.1,020.0,21.9,0000.5,0015.24,0019.08,0014.65
2023-12-13 20:51:00,SystemResetWarning,0837.6,5.01,000.00,018.7,017.8,000.0,027.1,020.0,22.0,0000.5,0015.30,0018.99,0014.68
2023-12-13 20:52:00,SystemResetWarning,0837.5,5.00,000.00,018.7,017.8,000.0,027.1,020.0,22.1,0000.5,0015.37,0019.15,0014.72
2023-12-13 20:53:00,SystemResetWarning,0837.5,5.00,000.00,018.7,017.8,000.0,027.1,020.0,22.1,0000.3,0015.40,0019.19,0014.75
2023-12-13 20:54:00,SystemResetWarning,0837.5,5.00,000.00,018.7,017.8,000.0,027.1,020.0,22.0,0000.2,0015.44,0019.27,0014.75
2023-12-13 20:55:00,SystemResetWarning,0837.5,5.00,000.00,018.7,017.8,000.0,027.1,020.0,21.9,0000.1,0015.48,0019.30,0014.79
2023-12-13 20:56:00,SystemResetWarning,0837.4,5.00,000.00,018.7,017.8,000.0,027.1,020.0,21.9,-000.1,0015.51,0019.81,0014.83
2023-12-13 20:57:00,SystemResetWarning,0837.4,5.00,000.00,018.7,017.8,000.0,027.1,020.0,22.0,-000.2,0015.53,0019.91,0014.86
2023-12-13 20:58:00,SystemResetWarning,0837.4,5.00,000.00,018.7,017.8,000.0,027.1,020.0,22.1,-000.4,0015.55,0019.86,0014.90
2023-12-13 20:59:00,SystemResetWarning,0837.4,5.00,000.00,018.7,017.8,000.0,027.1,020.0,22.0,-000.6,0015.60,0019.96,0014.94
